PDT5823 KROA-KCLT

Flight info

Callsign PDT5823
Flight time N/A
Altitude 24000
Route AIROW CHSLY6
Aircraft E145/M-SDFGIRW/S

Departure

Time 2026-04-23 20:46
Airport Roanoke–Blacksburg Regional Airport (KROA)

Arrival

Time N/A
Airport Charlotte Douglas International Airport (KCLT)
Time Latitude Longitude Altitude Speed Heading
2026-04-23 20:21 37.32110 -79.97144 1161 ft 0 kts 105°
2026-04-23 20:38 37.32113 -79.97160 1161 ft 2 kts 105°
2026-04-23 20:38 37.32117 -79.97178 1161 ft 2 kts 105°
2026-04-23 20:39 37.32121 -79.97196 1161 ft 2 kts 105°
2026-04-23 20:39 37.32125 -79.97214 1161 ft 2 kts 105°
2026-04-23 20:39 37.32130 -79.97232 1161 ft 2 kts 131°
2026-04-23 20:39 37.32138 -79.97240 1161 ft 0 kts 153°
2026-04-23 20:40 37.32143 -79.97244 1161 ft 0 kts 148°
2026-04-23 20:42 37.32137 -79.97239 1161 ft 2 kts 148°
2026-04-23 20:42 37.32109 -79.97218 1160 ft 6 kts 148°
2026-04-23 20:43 37.32061 -79.97180 1159 ft 9 kts 147°
2026-04-23 20:43 37.31991 -79.97175 1157 ft 13 kts 218°
2026-04-23 20:43 37.31928 -79.97205 1153 ft 11 kts 151°
2026-04-23 20:43 37.31854 -79.97146 1151 ft 14 kts 148°
2026-04-23 20:44 37.31753 -79.97066 1146 ft 19 kts 147°
2026-04-23 20:44 37.31649 -79.96986 1140 ft 9 kts 150°
2026-04-23 20:44 37.31581 -79.97007 1136 ft 13 kts 237°
2026-04-23 20:44 37.31570 -79.97073 1135 ft 6 kts 323°
2026-04-23 20:45 37.31578 -79.97078 1136 ft 0 kts 327°
2026-04-23 20:45 37.31683 -79.97161 1142 ft 52 kts 327°
2026-04-23 20:45 37.32191 -79.97560 1157 ft 117 kts 328°
2026-04-23 20:45 37.33001 -79.98196 1356 ft 145 kts 324°
2026-04-23 20:46 37.33765 -79.99021 1847 ft 152 kts 295°
2026-04-23 20:46 37.33915 -80.00298 2477 ft 156 kts 263°
2026-04-23 20:46 37.33618 -80.01717 2803 ft 184 kts 249°
2026-04-23 20:46 37.32642 -80.03016 3056 ft 225 kts 216°
2026-04-23 20:47 37.31057 -80.03680 3401 ft 262 kts 190°
2026-04-23 20:47 37.29225 -80.03365 4227 ft 274 kts 157°
2026-04-23 20:47 37.27618 -80.02164 5202 ft 275 kts 148°
2026-04-23 20:47 37.26009 -80.00879 6138 ft 278 kts 149°
2026-04-23 20:48 37.24408 -79.99515 7048 ft 282 kts 138°
2026-04-23 20:48 37.23328 -79.97483 7928 ft 284 kts 107°
2026-04-23 20:48 37.23195 -79.95035 8816 ft 283 kts 76°
2026-04-23 20:48 37.23668 -79.92666 9680 ft 286 kts 82°
2026-04-23 20:49 37.23759 -79.90160 10495 ft 291 kts 86°
2026-04-23 20:49 37.23815 -79.87561 11082 ft 305 kts 87°
2026-04-23 20:49 37.23860 -79.84849 11620 ft 318 kts 87°
2026-04-23 20:49 37.23905 -79.82040 12194 ft 329 kts 87°
2026-04-23 20:50 37.23951 -79.79076 12844 ft 337 kts 87°
2026-04-23 20:50 37.23996 -79.76139 13597 ft 339 kts 87°
2026-04-23 20:50 37.24041 -79.73186 14338 ft 341 kts 87°
2026-04-23 20:50 37.24085 -79.70198 15014 ft 345 kts 87°
2026-04-23 20:51 37.24129 -79.67186 15677 ft 348 kts 87°
2026-04-23 20:51 37.24172 -79.64140 16316 ft 351 kts 87°
2026-04-23 20:51 37.24216 -79.61056 16940 ft 354 kts 87°
2026-04-23 20:51 37.24259 -79.57929 17527 ft 358 kts 88°
2026-04-23 20:52 37.24301 -79.54853 18189 ft 358 kts 88°
2026-04-23 20:52 37.24269 -79.51706 18864 ft 358 kts 96°
2026-04-23 20:52 37.23460 -79.48751 19484 ft 360 kts 120°
2026-04-23 20:52 37.21776 -79.46436 20115 ft 359 kts 144°
2026-04-23 20:53 37.19653 -79.44799 20826 ft 359 kts 153°
2026-04-23 20:53 37.17296 -79.43894 21528 ft 355 kts 176°
2026-04-23 20:53 37.15216 -79.43971 22153 ft 352 kts 184°